Weather History for KHGR - October, 2011

Change the Weather History Date:

Wednesday, October 5, 2011

  Actual Average Record
Temperature  
Mean Temperature 61 °F -  
Max Temperature 73 °F 65 °F 86 °F (2013)
Min Temperature 49 °F 47 °F 35 °F (1996)
Degree Days  
Heating Degree Days 4    
Month to date heating degree days 69  
Growing Degree Days 12 (Base 50)    
Moisture  
Dew Point 48 °F    
Average Humidity 64    
Maximum Humidity 89    
Minimum Humidity 38    
Precipitation  
Precipitation 0.00 in - - ()
Month to date precipitation 1.11  
Year to date precipitation 38.18  
Sea Level Pressure  
Sea Level Pressure 30.23 in    
Wind  
Wind Speed 8 mph (NW)    
Max Wind Speed 18 mph    
Max Gust Speed 22 mph    
Visibility 10 miles    
Events      
Averages and records for this station are not official NWS values.
T = Trace of Precipitation, MM = Missing Value Source: NWS Daily Summary

Daily Weather History Graph

Daily Weather History Graph

Search for Another Location

Airport or City:

Trip Planner

Search our weather history database for the weather conditions in past years. The results will help you decide how hot, cold, wet, or windy it might be!

Date:

Astronomy

Oct. 05, 2011 Rise Set
Actual Time 7:10 AM EDT 6:47 PM EDT
Civil Twilight 6:43 AM EDT 7:14 PM EDT
Nautical Twilight 6:12 AM EDT 7:45 PM EDT
Astronomical Twilight 5:41 AM EDT 8:16 PM EDT
Moon 3:25 PM EDT (10/5) 12:56 AM EDT (10/5)
Length of Visible Light 12h 30m
Length of Day
11h 36m
Waxing Gibbous, 66% of the Moon is Illuminated
Oct 5
Waxing Gibbous
Oct 11
Full
Oct 19
Last Quarter
Oct 26
New
Nov 2
First Quarter

Hourly Weather History & Observations

Time (EDT) Temp. Dew Point Humidity Pressure Visibility Wind Dir Wind Speed Gust Speed Precip Events Conditions
12:53 AM 55.0 °F 50.0 °F 83% 30.19 in 10.0 mi Calm Calm - N/A   Clear
1:53 AM 54.0 °F 48.9 °F 83% 30.20 in 10.0 mi WNW 3.5 mph - N/A   Clear
2:53 AM 54.0 °F 48.0 °F 80% 30.20 in 10.0 mi West 4.6 mph - N/A   Clear
3:53 AM 52.0 °F 48.9 °F 89% 30.21 in 10.0 mi South 3.5 mph - N/A   Clear
4:53 AM 53.1 °F 48.9 °F 86% 30.22 in 10.0 mi SSW 4.6 mph - N/A   Clear
5:53 AM 50.0 °F 46.0 °F 86% 30.23 in 10.0 mi Calm Calm - N/A   Clear
7:53 AM 53.1 °F 48.0 °F 83% 30.25 in 10.0 mi WSW 4.6 mph - N/A   Clear
8:53 AM 57.0 °F 48.9 °F 74% 30.26 in 10.0 mi WNW 9.2 mph - N/A   Clear
9:53 AM 60.1 °F 48.9 °F 67% 30.26 in 10.0 mi WNW 12.7 mph - N/A   Clear
11:53 AM 66.9 °F 48.0 °F 51% 30.25 in 10.0 mi NW 18.4 mph - N/A   Clear
12:53 PM 69.1 °F 48.9 °F 49% 30.24 in 10.0 mi NW 13.8 mph - N/A   Clear
1:53 PM 71.1 °F 50.0 °F 47% 30.22 in 10.0 mi NNW 9.2 mph - N/A   Clear
3:53 PM 73.0 °F 46.9 °F 39% 30.19 in 10.0 mi NNW 8.1 mph - N/A   Clear
5:53 PM 71.1 °F 46.9 °F 42% 30.21 in 10.0 mi North 4.6 mph - N/A   Clear
6:53 PM 66.9 °F 48.0 °F 51% 30.21 in 10.0 mi NNW 4.6 mph - N/A   Clear
7:53 PM 66.0 °F 48.0 °F 52% 30.23 in 10.0 mi Calm Calm - N/A   Clear
8:53 PM 63.0 °F 48.0 °F 58% 30.25 in 10.0 mi Calm Calm - N/A   Clear
9:53 PM 59.0 °F 48.9 °F 69% 30.27 in 10.0 mi Calm Calm - N/A   Clear
10:53 PM 55.9 °F 48.9 °F 77% 30.29 in 10.0 mi ENE 5.8 mph - N/A   Clear
11:53 PM 57.0 °F 46.9 °F 69% 30.32 in 10.0 mi NE 6.9 mph - N/A   Clear